Home   Weather   Spain   Madrid   Past weeks
Flag for Spain

Past Weather in Madrid, Spain — February 2021

Currently: 37 °F. Passing clouds. (Weather station: Madrid / Cuatro Vientos, Spain). See more current weather

February 2021 Weather in Madrid — Graph

°F

High & Low Weather Summary for February 2021

 TemperatureHumidityPressure
High70 °F (Feb 27, 2:30 pm)100% (Feb 2, 2:00 am)30.54 "Hg (Feb 2, 2:00 am)
Low39 °F (Feb 7, 6:30 am)23% (Feb 27, 4:00 pm)29.56 "Hg (Feb 5, 4:30 pm)
Average51 °F75%30.07 "Hg
* Reported Feb 1 12:00 am — Feb 28 11:30 pm, Madrid. Weather by CustomWeather, © 2021

Note: Actual official high and low records may vary slightly from our data, if they occured in-between our weather recording intervals... More about our weather records

Madrid Weather History for February 1, 2021

Scroll right to see more
 ConditionsComfort  
Time TempWeatherWind HumidityBarometerVisibility
12:00 am
Mon, Feb 1
55 °FClear.26 mph67%29.92 "Hg10 mi
12:30 am55 °FClear.25 mph63%29.92 "Hg10 mi
1:00 am52 °FClear.20 mph82%29.92 "Hg10 mi
7:30 am48 °FClear.14 mph82%29.95 "Hg10 mi
8:00 am48 °FPassing clouds.16 mph82%29.95 "HgN/A
9:00 am48 °FPassing clouds.15 mph87%29.98 "HgN/A
9:30 am50 °FPassing clouds.16 mph82%30.01 "HgN/A
10:00 am52 °FPassing clouds.13 mph77%30.01 "HgN/A
10:30 am50 °FPassing clouds.10 mph88%30.01 "HgN/A
11:00 am52 °FPassing clouds.15 mph82%30.04 "HgN/A
11:30 am52 °FPassing clouds.14 mph82%30.04 "HgN/A
12:00 pm54 °FScattered clouds.16 mph77%30.04 "HgN/A
12:30 pm57 °FPassing clouds.17 mph67%30.04 "HgN/A
1:00 pm57 °FPassing clouds.14 mph67%30.01 "HgN/A
1:30 pm59 °FPassing clouds.16 mph68%30.01 "HgN/A
2:00 pm59 °FScattered clouds.13 mph63%30.01 "HgN/A
2:30 pm61 °FScattered clouds.16 mph63%30.01 "HgN/A
3:00 pm61 °FScattered clouds.14 mph59%30.01 "HgN/A
3:30 pm59 °FScattered clouds.12 mph68%30.01 "HgN/A
4:00 pm59 °FScattered clouds.14 mph63%30.01 "HgN/A
4:30 pm57 °FScattered clouds.15 mph72%30.01 "HgN/A
5:00 pm57 °FScattered clouds.22 mph72%30.04 "HgN/A
5:30 pm55 °FScattered clouds.22 mph77%30.04 "HgN/A
6:00 pm55 °FScattered clouds.20 mph72%30.04 "HgN/A
6:30 pm54 °FPassing clouds.17 mph77%30.04 "HgN/A
7:00 pm54 °FPassing clouds.18 mph82%30.04 "HgN/A
7:30 pm52 °FPassing clouds.20 mph82%30.04 "HgN/A
8:30 pm52 °FClear.23 mph82%30.07 "Hg10 mi
9:00 pm52 °FClear.18 mph82%30.07 "Hg10 mi
9:30 pm50 °FClear.18 mph88%30.07 "Hg10 mi
10:00 pm50 °FClear.16 mph88%30.07 "Hg10 mi
10:30 pm50 °FClear.16 mph88%30.09 "Hg10 mi
11:00 pm50 °FClear.14 mph88%30.07 "Hg10 mi
11:30 pm50 °FClear.16 mph88%30.09 "Hg10 mi
Weather by CustomWeather, © 2021

See weather overview